Weather History for Wheaton NDB, MN

Change the Weather History Date:

Tuesday, May 27, 2014

  Actual Average Record
Temperature  
Mean Temperature 74 °F -  
Max Temperature 89 °F 75 °F 97 °F (1969)
Min Temperature 60 °F 49 °F 33 °F (1965)
Cooling Degree Days 10    
Growing Degree Days 24 (Base 50)    
Moisture  
Dew Point 62 °F    
Average Humidity 67    
Maximum Humidity 94    
Minimum Humidity 33    
Precipitation  
Precipitation 0.00 in - - ()
Sea Level Pressure  
Sea Level Pressure 29.93 in    
Wind  
Wind Speed 3 mph (WSW)    
Max Wind Speed 17 mph    
Max Gust Speed 29 mph    
Visibility 10 miles    
Events      
Averages and records for this station are not official NWS values.
T = Trace of Precipitation, MM = Missing Value Source: NWS Daily Summary

Daily Weather History Graph

Daily Weather History Graph

Search for Another Location

Airport:

Trip Planner

Search our weather history database for the weather conditions in past years. The results will help you decide how hot, cold, wet, or windy it might be!

Date:

Astronomy

May. 27, 2014 Rise Set
Actual Time 5:43 AM CDT 9:04 PM CDT
Civil Twilight 5:06 AM CDT 9:40 PM CDT
Nautical Twilight 4:18 AM CDT 10:28 PM CDT
Astronomical Twilight 3:18 AM CDT 11:29 PM CDT
Moon 5:11 AM CDT (5/27) 8:03 PM CDT (5/27)
Length of Visible Light 16h 34m
Length of Day
15h 21m
Waning Crescent, 1% of the Moon is Illuminated
May 27
Waning Crescent
May 28
New
Jun 5
First Quarter
Jun 12
Full
Jun 19
Last Quarter

Hourly Weather History & Observations

Time (CDT) Temp. Heat Index Dew Point Humidity Pressure Visibility Wind Dir Wind Speed Gust Speed Precip Events Conditions
12:14 AM 66.2 °F - 62.6 °F 88% 29.92 in 10.0 mi Calm Calm - N/A   Clear
12:35 AM 66.2 °F - 62.6 °F 88% 29.91 in 10.0 mi SW 3.5 mph - N/A   Clear
12:54 AM 66.2 °F - 62.6 °F 88% 29.90 in 10.0 mi Calm Calm - N/A   Clear
1:14 AM 66.2 °F - 62.6 °F 88% 29.90 in 10.0 mi Calm Calm - N/A   Clear
1:35 AM 66.2 °F - 62.6 °F 88% 29.89 in 10.0 mi West 3.5 mph - N/A   Clear
1:54 AM 66.2 °F - 64.4 °F 94% 29.90 in 10.0 mi WSW 3.5 mph - N/A   Clear
2:15 AM 68.0 °F - 66.2 °F 94% 29.90 in 10.0 mi Calm Calm - N/A   Clear
2:35 AM 66.2 °F - 64.4 °F 94% 29.90 in 10.0 mi Calm Calm - N/A   Clear
2:55 AM 66.2 °F - 64.4 °F 94% 29.91 in 10.0 mi WSW 3.5 mph - N/A   Clear
3:15 AM 64.4 °F - 62.6 °F 94% 29.91 in 7.0 mi ESE 3.5 mph - N/A   Clear
3:35 AM 64.4 °F - 60.8 °F 88% 29.91 in 10.0 mi Calm Calm - N/A   Clear
3:54 AM 64.4 °F - 60.8 °F 88% 29.91 in 7.0 mi Calm Calm - N/A   Clear
4:15 AM 64.4 °F - 62.6 °F 94% 29.92 in 7.0 mi West 4.6 mph - N/A   Scattered Clouds
4:35 AM 64.4 °F - 62.6 °F 94% 29.93 in 7.0 mi WNW 5.8 mph - N/A   Mostly Cloudy
4:54 AM 64.4 °F - 60.8 °F 88% 29.92 in 10.0 mi Calm Calm - N/A   Mostly Cloudy
5:15 AM 64.4 °F - 60.8 °F 88% 29.92 in 10.0 mi Calm Calm - N/A   Scattered Clouds
5:34 AM 62.6 °F - 60.8 °F 94% 29.93 in 10.0 mi Calm Calm - N/A   Clear
5:55 AM 62.6 °F - 60.8 °F 94% 29.93 in 10.0 mi Calm Calm - N/A   Clear
6:15 AM 60.8 °F - 57.2 °F 88% 29.93 in 10.0 mi ENE 3.5 mph - N/A   Clear
6:34 AM 60.8 °F - 57.2 °F 88% 29.93 in 10.0 mi Calm Calm - N/A   Clear
6:54 AM 62.6 °F - 60.8 °F 94% 29.94 in 10.0 mi Calm Calm - N/A   Clear
7:14 AM 64.4 °F - 60.8 °F 88% 29.93 in 10.0 mi Calm Calm - N/A   Clear
7:35 AM 66.2 °F - 60.8 °F 83% 29.94 in 10.0 mi West 3.5 mph - N/A   Clear
7:54 AM 66.2 °F - 60.8 °F 83% 29.94 in 10.0 mi West 3.5 mph - N/A   Clear
8:15 AM 69.8 °F - 62.6 °F 78% 29.94 in 10.0 mi West 4.6 mph - N/A   Clear
8:35 AM 71.6 °F - 62.6 °F 73% 29.94 in 10.0 mi WNW 3.5 mph - N/A   Clear
8:55 AM 73.4 °F - 62.6 °F 69% 29.94 in 10.0 mi Calm Calm - N/A   Clear
9:15 AM 73.4 °F - 62.6 °F 69% 29.95 in 10.0 mi West 3.5 mph - N/A   Clear
9:34 AM 75.2 °F - 62.6 °F 65% 29.94 in 10.0 mi WNW 4.6 mph - N/A   Clear
9:54 AM 77.0 °F - 64.4 °F 65% 29.94 in 10.0 mi WNW 4.6 mph - N/A   Clear
10:14 AM 78.8 °F - 64.4 °F 61% 29.95 in 10.0 mi NW 3.5 mph - N/A   Clear
10:34 AM 78.8 °F - 64.4 °F 61% 29.95 in 10.0 mi NW 4.6 mph - N/A   Clear
10:54 AM 80.6 °F 82.3 °F 64.4 °F 58% 29.95 in 10.0 mi West 4.6 mph - N/A   Clear
11:15 AM 80.6 °F 82.3 °F 64.4 °F 58% 29.95 in 10.0 mi NNW 3.5 mph - N/A   Clear
11:35 AM 82.4 °F 83.9 °F 64.4 °F 54% 29.95 in 10.0 mi NNW 4.6 mph - N/A   Clear
11:54 AM 82.4 °F 83.4 °F 62.6 °F 51% 29.94 in 10.0 mi NNW 6.9 mph - N/A   Clear
12:14 PM 82.4 °F 83.4 °F 62.6 °F 51% 29.95 in 10.0 mi NNW 3.5 mph - N/A   Clear
12:34 PM 84.2 °F 85.0 °F 62.6 °F 48% 29.94 in 10.0 mi WNW 6.9 mph - N/A   Clear
12:54 PM 84.2 °F 85.0 °F 62.6 °F 48% 29.94 in 10.0 mi North 5.8 mph - N/A   Clear
1:15 PM 86.0 °F 86.1 °F 60.8 °F 43% 29.94 in 10.0 mi Calm Calm - N/A   Clear
1:34 PM 87.8 °F 87.6 °F 60.8 °F 40% 29.93 in 10.0 mi SW 4.6 mph - N/A   Clear
1:54 PM 84.2 °F 84.4 °F 60.8 °F 45% 29.93 in 10.0 mi Calm Calm - N/A   Clear
2:15 PM 87.8 °F 88.5 °F 62.6 °F 43% 29.93 in 10.0 mi NNE 4.6 mph - N/A   Scattered Clouds
2:34 PM 87.8 °F 87.6 °F 60.8 °F 40% 29.92 in 10.0 mi SW 3.5 mph - N/A   Scattered Clouds
2:55 PM 89.6 °F 88.9 °F 59.0 °F 36% 29.92 in 10.0 mi West 6.9 mph - N/A   Clear
3:15 PM 89.6 °F 89.5 °F 60.8 °F 38% 29.92 in 10.0 mi West 9.2 mph - N/A   Clear
3:34 PM 89.6 °F 89.5 °F 60.8 °F 38% 29.91 in 10.0 mi WNW 6.9 mph - N/A   Clear
3:55 PM 89.6 °F 88.1 °F 57.2 °F 33% 29.90 in 10.0 mi West 6.9 mph - N/A   Clear
4:14 PM 89.6 °F 88.9 °F 59.0 °F 36% 29.90 in 10.0 mi WSW 6.9 mph 16.1 mph N/A   Clear
4:35 PM 89.6 °F 89.5 °F 60.8 °F 38% 29.91 in 10.0 mi NW 9.2 mph - N/A   Clear
4:55 PM 86.0 °F 86.1 °F 60.8 °F 43% 29.90 in 4.0 mi NE 17.3 mph 28.8 mph N/A   Haze
5:14 PM 86.0 °F 86.1 °F 60.8 °F 43% 29.91 in 10.0 mi NNE 12.7 mph - N/A   Clear
5:35 PM 84.2 °F 84.4 °F 60.8 °F 45% 29.91 in 10.0 mi ENE 10.4 mph - N/A   Clear
5:54 PM 84.2 °F 84.4 °F 60.8 °F 45% 29.91 in 10.0 mi ENE 8.1 mph - N/A   Clear
6:15 PM 86.0 °F 86.1 °F 60.8 °F 43% 29.91 in 10.0 mi East 10.4 mph - N/A   Clear
6:34 PM 84.2 °F 84.4 °F 60.8 °F 45% 29.92 in 10.0 mi SE 12.7 mph 16.1 mph N/A   Scattered Clouds
6:54 PM 82.4 °F 82.5 °F 59.0 °F 45% 29.92 in 10.0 mi SE 9.2 mph - N/A   Scattered Clouds
7:15 PM 80.6 °F 81.8 °F 62.6 °F 54% 29.92 in 10.0 mi SE 9.2 mph - N/A   Scattered Clouds
7:34 PM 80.6 °F 81.8 °F 62.6 °F 54% 29.93 in 10.0 mi SE 6.9 mph - N/A   Clear
7:54 PM 78.8 °F - 62.6 °F 57% 29.94 in 10.0 mi SE 9.2 mph - N/A   Clear
8:15 PM 78.8 °F - 60.8 °F 54% 29.94 in 10.0 mi SSE 8.1 mph - N/A   Clear
8:34 PM 77.0 °F - 60.8 °F 57% 29.94 in 10.0 mi SSE 8.1 mph - N/A   Clear
8:54 PM 75.2 °F - 62.6 °F 65% 29.95 in 10.0 mi South 9.2 mph 17.3 mph N/A   Clear
9:14 PM 73.4 °F - 62.6 °F 69% 29.95 in 10.0 mi South 9.2 mph - N/A   Clear
9:35 PM 73.4 °F - 60.8 °F 65% 29.96 in 10.0 mi SSE 10.4 mph - N/A   Clear
9:54 PM 73.4 °F - 60.8 °F 65% 29.97 in 10.0 mi SSE 8.1 mph - N/A   Clear
10:14 PM 73.4 °F - 62.6 °F 69% 29.98 in 10.0 mi SE 8.1 mph - N/A   Clear
10:34 PM 71.6 °F - 62.6 °F 73% 29.98 in 10.0 mi SE 5.8 mph - N/A   Clear
10:54 PM 69.8 °F - 60.8 °F 73% 29.99 in 10.0 mi SSE 4.6 mph - N/A   Clear
11:14 PM 69.8 °F - 62.6 °F 78% 30.00 in 10.0 mi Calm Calm - N/A   Clear
11:34 PM 68.0 °F - 60.8 °F 78% 30.00 in 10.0 mi Calm Calm - N/A   Clear
11:54 PM 66.2 °F - 60.8 °F 83% 30.00 in 10.0 mi SSE 3.5 mph - N/A   Clear